Home   Weather   Hamar   Past weeks

Flag for Norway Past Weather in Hamar, Norway — Yesterday and Last 2 Weeks

Now
51 °F

Cool.


Feels Like: 50 °F
Forecast: 42 / 61 °F
Wind: 3 mph from Southeast

Location: Haugedalshogda

Current Time: May 30, 2017 at 11:09:49 am

Latest Report: May 30, 2017 at 10:00 am


Visibility: N/A

Pressure: 29.75 "Hg

Humidity: 91%

Dew Point: 48 °F

Location of HamarLocation

Past Weather in Hamar — Graph

°F

Hamar Temperature Yesterday

Maximum temperature yesterday: 60 °F (at 6:00 pm)
Minimum temperature yesterday: 41 °F (at 5:00 am)
Average temperature yesterday: 54 °F

High & Low Weather Summary for the Past Weeks

 TemperatureHumidityPressure
High82 °F (May 27, 3:00 pm)95% (May 25, 5:00 am)30.46 "Hg (May 25, 5:00 am)
Low30 °F (May 23, 5:00 am)19% (May 27, 5:00 pm)29.73 "Hg (May 28, 7:00 pm)
Average52 °F72%30.02 "Hg
* Reported May 15 9:00 am — May 30 9:00 am, Hamar. Weather by CustomWeather, © 2017

Note: Actual official high and low records may vary slightly from our data, if they occured in-between our weather recording intervals... More about our weather records

Advertising

Hamar Weather History for the Previous 24 Hours

Scroll right to see more
 ConditionsComfort  
Time TempWeatherWind HumidityBarometerVisibility
9:00 am
Tue, May 30
50 °FCool.3 mph91%29.77 "HgN/A
8:00 am50 °FCool.1 mph92%29.77 "HgN/A
7:00 am50 °FCool.2 mph93%29.78 "HgN/A
6:00 am50 °FCool.1 mph94%29.80 "HgN/A
5:00 am50 °FCool.1 mph94%29.81 "HgN/A
4:00 am50 °FCool.1 mph94%29.83 "HgN/A
3:00 am50 °FCool.1 mph93%29.84 "HgN/A
2:00 am50 °FCool.2 mph92%29.85 "HgN/A
1:00 am50 °FCool.2 mph94%29.86 "HgN/A
12:00 am50 °FCool.1 mph92%29.87 "HgN/A
11:00 pm
Mon, May 29
52 °FCool.1 mph91%29.88 "HgN/A
10:00 pm54 °FCool.2 mph89%29.87 "HgN/A
9:00 pm55 °FCool.1 mph84%29.86 "HgN/A
8:00 pm58 °FCool.1 mph74%29.86 "HgN/A
7:00 pm60 °FCool.1 mph64%29.87 "HgN/A
6:00 pm60 °FRefreshingly cool.1 mph52%29.88 "HgN/A
5:00 pm60 °FRefreshingly cool.1 mph53%29.88 "HgN/A
4:00 pm59 °FRefreshingly cool.2 mph57%29.90 "HgN/A
3:00 pm58 °FRefreshingly cool.2 mph56%29.92 "HgN/A
2:00 pm60 °FRefreshingly cool.3 mph53%29.92 "HgN/A
1:00 pm58 °FCool.2 mph63%29.92 "HgN/A
12:00 pm55 °FCool.2 mph75%29.93 "HgN/A
11:00 am54 °FCool.1 mph76%29.93 "HgN/A
Weather by CustomWeather, © 2017

See weather overviewHow to use our weather pages